Weather Roundup
Issued by NWS Springfield, MO

Home | Current Version | Previous Version | Text Only | Print | Product List | Glossary On
Versions: 1 2 3 4 5 6 7 8 9 10 11 12 13 14 15 16 17 18 19 20 21 22 23 24 25 26 27 28 29 30 31 32 33 34 35 36 37 38 39 40 41 42 43 44 45 46 47 48 49 50
000
NZUS99 KSGF 200759
HRRSGF

HOURLY WEATHER
NATIONAL WEATHER SERVICE SPRINGFIELD MO
200 AM CST SAT DEC 20 2014

......SGF CWA......

CITY           SKY/WX    TMP DP  RH WIND       PRES   REMARKS
SPRINGFIELD    CLOUDY    37  35  92 S7        30.19R WCI  32
JOPLIN         CLOUDY    38  37  97 CALM      30.21S FOG
WEST PLAINS    LGT SNOW  33  31  92 E3        30.21S FOG
ROLLA          CLOUDY    34  32  92 SE5       30.20R FOG     WCI  30
OSAGE BEACH    CLOUDY    37  34  87 CALM      30.20F

......SURROUNDING SGF CWA......

CITY           SKY/WX    TMP DP  RH WIND       PRES   REMARKS
CHANUTE        CLOUDY    35  34  96 CALM      30.22R FOG
PARSONS        CLOUDY    35  35 100 CALM      30.23R FOG
COFFEYVILLE    CLOUDY    35  34  96 CALM      30.23R FOG
EMPORIA        CLOUDY    33  31  92 S8        30.18F WCI  26
ROGERS AR      CLOUDY    39  39 100 W3        30.20S FOG
SILOAM SPRINGS CLOUDY    39  34  81 CALM      30.20F VSB 3/4
HARRISON AR    FOG       36  36 100 SE6       30.20R VSB 1/4 WCI  31
NEAR YELLVILLE CLOUDY    36  32  87 CALM      30.22R

......KANSAS AND MISSOURI......

CITY           SKY/WX    TMP DP  RH WIND       PRES   REMARKS
KANSAS CTY INT CLOUDY    32  31  96 S7        30.18S FOG     WCI  26
DOWNTOWN KC    CLOUDY    34  31  88 SW5       30.19F WCI  30
COLUMBIA       CLOUDY    35  33  92 SE5       30.21F FOG     WCI  31
SEDALIA        FOG       37  36  96 SE5       30.20F VSB 3/4 WCI  33
ST JOSEPH      CLOUDY    32  29  88 S7        30.20S WCI  26
ST LOUIS       CLOUDY    36  26  67 SE6       30.26F WCI  31
SPIRIT OF STL  CLOUDY    35  29  78 CALM      30.25F
KIRKSVILLE     CLOUDY    32  32 100 SE7       30.21F FOG     WCI  26
WICHITA        MOCLDY    36  33  89 S8        30.16F WCI  30
TOPEKA         CLOUDY    34  30  85 SE6       30.18F WCI  29
OLATHE         CLOUDY    33  32  96 S7        30.18F FOG     WCI  27

......TENNESSEE......

CITY           SKY/WX    TMP DP  RH WIND       PRES   REMARKS
MEMPHIS        PTCLDY    37  31  78 N3        30.23R
NASHVILLE      MOCLDY    35  27  72 N6        30.22S WCI  30

......ARKANSAS.......

CITY           SKY/WX    TMP DP  RH WIND       PRES   REMARKS
FAYETTEVILLE   CLOUDY    40  40 100 CALM      30.19F
FT SMITH       CLOUDY    42  39  89 E5        30.21F FOG
LITTLE ROCK    CLOUDY    41  35  79 NE6       30.24S

......OKLAHOMA.......

CITY           SKY/WX    TMP DP  RH WIND       PRES   REMARKS
TULSA          CLOUDY    38  36  92 N3        30.23S
PONCA CITY     CLOUDY    39  34  82 CALM      30.20F
MCALESTER      FOG       41  40  96 NW5       30.21F VSB 1/4
OKLAHOMA CITY  CLOUDY    40  36  86 CALM      30.19F

......IOWA............

CITY           SKY/WX    TMP DP  RH WIND       PRES   REMARKS
DES MOINES     LGT SNOW  32  30  92 S5        30.18S FOG     WCI  27
QUAD CITIES    CLOUDY    29  24  82 CALM      30.26S

......ILLINOIS........

CITY           SKY/WX    TMP DP  RH WIND       PRES   REMARKS
QUINCY         CLOUDY    32  27  81 SE6       30.24S WCI  26
CHICAGO        CLOUDY    29  23  78 CALM      30.27R




USA.gov is the U.S. government's official web portal to all federal, state and local government web resources and services.